BMCB-35 Weather Reports


Display with metric or nautical units.
time (UTC)temp
F
wind
direction
speed
MPH
gust
MPH
rain 1hr
in
rain 24hr
in
rain mn
in
humidity
%
barometer
mb
20260507084042 52 75 2.0 3.0 0.00 0.01 0.00 74 1015.7
20260507084037 52 75 2.0 3.0 0.00 0.01 0.00 74 1015.7
20260507083016 52 52 1.0 3.0 0.00 0.01 0.00 74 1015.7
20260507083014 52 52 1.0 3.0 0.00 0.01 0.00 74 1015.6
20260507082015 51 315 1.0 3.0 0.00 0.01 0.00 75 1015.6
20260507081040 51 315 1.0 3.0 0.00 0.01 0.00 75 1015.6
20260507081036 51 315 1.0 3.0 0.00 0.01 0.00 78 1015.6
20260507080044 51 312 1.0 4.0 0.00 0.01 0.00 78 1015.6
20260507080039 50 312 1.0 4.0 0.00 0.01 0.00 78 1015.5
20260507075047 50 282 3.0 5.0 0.00 0.01 0.00 78 1015.5
20260507075041 51 282 3.0 5.0 0.00 0.01 0.00 79 1015.4
20260507074044 51 276 2.0 4.0 0.00 0.01 0.00 79 1015.4
20260507074039 51 276 2.0 4.0 0.00 0.01 0.00 79 1015.2
20260507073047 51 271 3.0 5.0 0.00 0.01 0.00 79 1015.2
20260507073042 50 271 3.0 5.0 0.00 0.01 0.00 81 1015.1
20260507072040 50 269 3.0 6.0 0.00 0.01 0.00 81 1015.1
20260507072034 49 269 3.0 6.0 0.00 0.01 0.00 83 1015.2
20260507071022 49 283 2.0 4.0 0.00 0.01 0.00 83 1015.2
20260507071020 49 265 3.0 5.0 0.00 0.01 0.00 84 1015.2
20260507070012 48 277 1.0 3.0 0.00 0.01 0.00 85 1015.1
20260507065016 48 263 2.0 4.0 0.00 0.01 0.00 85 1015.1
20260507064044 48 263 2.0 4.0 0.00 0.01 0.00 85 1015.1
20260507064039 48 263 2.0 4.0 0.00 0.01 0.00 86 1015.1
20260507063034 48 277 3.0 5.0 0.00 0.01 0.00 86 1015.1
20260507063029 48 277 3.0 5.0 0.00 0.01 0.00 86 1015.0
20260507062011 47 266 2.0 5.0 0.00 0.01 0.00 86 1014.9
20260507061022 47 266 2.0 5.0 0.00 0.01 0.00 86 1014.9
20260507060015 47 265 4.0 6.0 0.00 0.02 0.00 86 1014.9
20260507055015 47 271 3.0 5.0 0.00 0.02 0.00 87 1014.7
20260507054012 47 264 3.0 5.0 0.00 0.02 0.00 87 1014.7
20260507053041 47 264 3.0 5.0 0.00 0.02 0.00 88 1014.7
20260507053035 46 264 3.0 5.0 0.00 0.02 0.00 88 1014.6
20260507052043 46 262 3.0 5.0 0.00 0.02 0.00 88 1014.6
20260507052039 46 262 3.0 5.0 0.00 0.02 0.00 88 1014.5
20260507051044 46 265 3.0 6.0 0.00 0.02 0.00 88 1014.4
20260507050043 46 267 3.0 6.0 0.00 0.02 0.00 88 1014.4
20260507050037 46 267 3.0 6.0 0.00 0.02 0.00 89 1014.3
20260507045023 46 272 3.0 5.0 0.00 0.02 0.00 89 1014.3
20260507045021 45 272 3.0 5.0 0.00 0.02 0.00 90 1014.3
20260507044023 45 258 3.0 5.0 0.00 0.02 0.00 90 1014.3
20260507043037 45 258 3.0 5.0 0.00 0.02 0.00 90 1014.0
20260507042011 45 258 3.0 5.0 0.00 0.02 0.00 90 1014.0
20260507041041 46 258 3.0 5.0 0.00 0.02 0.00 87 1013.8
20260507035031 46 265 3.0 4.0 0.00 0.02 0.00 87 1013.7
20260507034012 46 261 4.0 6.0 0.00 0.02 0.00 87 1013.7
20260507032005 46 272 2.0 3.0 0.00 0.02 0.00 86 1013.6
20260507031039 46 272 2.0 3.0 0.00 0.02 0.00 86 1013.5
20260507031033 46 272 2.0 3.0 0.00 0.02 0.00 85 1013.5
20260507030035 46 271 1.0 3.0 0.00 0.02 0.00 85 1013.5
20260507025039 46 266 2.0 5.0 0.00 0.02 0.00 86 1013.5
20260507024041 46 257 3.0 5.0 0.00 0.02 0.00 86 1013.4
20260507023036 46 249 2.0 4.0 0.00 0.02 0.00 87 1013.4
20260507022014 46 242 2.0 3.0 0.00 0.02 0.00 87 1013.4
20260507022012 46 242 2.0 3.0 0.00 0.02 0.00 88 1013.3
20260507021015 46 231 1.0 2.0 0.00 0.02 0.00 88 1013.3
20260507020013 47 248 2.0 3.0 0.00 0.02 0.00 87 1013.1
20260507015014 47 256 2.0 3.0 0.00 0.02 0.00 87 1013.1
20260507014041 47 256 2.0 3.0 0.00 0.02 0.00 85 1013.1
20260507013004 48 261 3.0 6.0 0.00 0.02 0.00 84 1013.0
20260507012043 48 261 3.0 6.0 0.00 0.02 0.00 84 1013.0
20260507012038 48 261 3.0 6.0 0.00 0.02 0.00 84 1012.9
20260507011036 48 261 3.0 6.0 0.00 0.02 0.00 84 1012.9
20260507011030 48 261 3.0 6.0 0.00 0.02 0.00 85 1012.8
20260507010004 48 269 3.0 6.0 0.00 0.02 0.00 85 1012.8
20260507005009 48 265 3.0 6.0 0.00 0.02 0.00 85 1012.8
20260507004011 48 258 3.0 5.0 0.00 0.02 0.00 86 1012.6
20260507003012 49 263 3.0 5.0 0.00 0.02 0.00 85 1012.6
20260507002037 49 263 3.0 5.0 0.00 0.02 0.00 85 1012.6
20260507001037 49 269 3.0 6.0 0.00 0.03 0.00 85 1012.6
20260507000010 49 249 2.0 3.0 0.00 0.03 0.00 85 1012.5
20260506235045 49 249 2.0 3.0 0.00 0.03 0.00 85 1012.5
20260506235040 49 249 2.0 3.0 0.00 0.03 0.00 84 1012.5
20260506234015 49 258 2.0 3.0 0.00 0.03 0.00 84 1012.5
20260506234013 49 262 3.0 5.0 0.00 0.03 0.00 83 1012.4
20260506233016 49 262 3.0 5.0 0.00 0.03 0.00 83 1012.4
20260506233013 49 262 3.0 5.0 0.00 0.03 0.00 84 1012.4
20260506231017 49 258 3.0 5.0 0.00 0.03 0.00 84 1012.4
20260506231015 49 258 3.0 5.0 0.00 0.03 0.00 84 1012.3
20260506230111 49 267 3.0 4.0 0.00 0.03 0.00 84 1012.3
20260506230005 50 263 3.0 5.0 0.00 0.03 0.00 83 1012.2
20260506225047 50 263 3.0 5.0 0.00 0.03 0.00 83 1012.2
20260506224036 50 262 3.0 6.0 0.00 0.03 0.00 83 1012.2
20260506224029 50 262 3.0 6.0 0.00 0.03 0.00 83 1012.1
20260506223017 50 262 3.0 7.0 0.00 0.03 0.00 83 1012.1
20260506223014 50 262 3.0 7.0 0.00 0.03 0.00 82 1012.0
20260506222007 50 262 4.0 6.0 0.00 0.03 0.00 82 1012.0
20260506222004 50 262 4.0 6.0 0.00 0.03 0.00 83 1011.9
20260506221040 50 262 4.0 6.0 0.00 0.03 0.00 83 1011.9
20260506221034 50 262 4.0 6.0 0.00 0.03 0.00 83 1011.8
20260506220047 50 258 3.0 5.0 0.00 0.03 0.00 83 1011.8
20260506215050 50 265 3.0 5.0 0.00 0.03 0.03 83 1011.8
20260506215041 50 265 3.0 5.0 0.00 0.03 0.03 83 1011.7
20260506214047 50 263 2.0 4.0 0.00 0.03 0.03 83 1011.7
20260506214040 50 263 2.0 4.0 0.00 0.03 0.03 82 1011.6
20260506213047 50 243 1.0 2.0 0.00 0.03 0.03 82 1011.6
20260506213040 50 243 1.0 2.0 0.00 0.03 0.03 80 1011.5
20260506212015 50 249 2.0 3.0 0.00 0.03 0.03 80 1011.5
20260506212013 50 257 3.0 4.0 0.00 0.03 0.03 79 1011.4
20260506211032 50 257 3.0 4.0 0.00 0.03 0.03 79 1011.4
20260506211023 51 257 3.0 4.0 0.00 0.03 0.03 80 1011.3
20260506210025 51 263 3.0 5.0 0.00 0.03 0.03 80 1011.3
20260506205005 51 276 2.0 4.0 0.00 0.03 0.03 80 1011.3
20260506203005 51 267 4.0 7.0 0.00 0.03 0.03 76 1011.1
20260506202029 51 267 4.0 7.0 0.00 0.03 0.03 77 1011.1
20260506202023 51 267 4.0 7.0 0.00 0.03 0.03 79 1011.0
20260506201046 51 270 3.0 6.0 0.00 0.03 0.03 79 1011.0
20260506201035 51 270 3.0 6.0 0.00 0.03 0.03 81 1010.9
20260506200005 51 255 2.0 3.0 0.00 0.03 0.03 81 1010.9
20260506195009 51 225 1.0 3.0 0.00 0.03 0.03 84 1010.6
20260506194042 51 225 1.0 3.0 0.00 0.03 0.03 84 1010.6
20260506194033 51 225 1.0 3.0 0.00 0.03 0.03 83 1010.5
20260506193034 52 223 0.0 2.0 0.00 0.03 0.03 81 1010.3
20260506192007 52 272 3.0 5.0 0.00 0.03 0.03 81 1010.3
20260506192005 52 272 3.0 5.0 0.00 0.03 0.03 79 1010.3
20260506191008 52 272 4.0 7.0 0.00 0.03 0.03 79 1010.3
20260506190040 52 272 4.0 7.0 0.00 0.04 0.03 78 1010.0
20260506185015 52 273 4.0 7.0 0.00 0.06 0.03 78 1010.0
20260506184039 53 272 4.0 6.0 0.00 0.06 0.03 77 1009.9
20260506184033 53 272 4.0 6.0 0.00 0.06 0.03 77 1009.8
20260506183024 53 290 3.0 8.0 0.00 0.09 0.03 78 1009.6
20260506182013 53 280 3.0 6.0 0.00 0.09 0.03 77 1009.4
20260506181049 53 280 3.0 6.0 0.00 0.13 0.03 77 1009.4
20260506181042 54 280 3.0 6.0 0.00 0.13 0.03 77 1009.3
20260506180006 54 287 3.0 5.0 0.00 0.23 0.03 77 1009.3
20260506175046 54 287 3.0 5.0 0.00 0.28 0.03 76 1009.1
20260506175040 54 287 3.0 5.0 0.00 0.28 0.03 75 1009.0
20260506174015 54 292 3.0 6.0 0.00 0.34 0.03 75 1009.0
20260506174013 54 292 3.0 6.0 0.00 0.34 0.03 76 1008.9
20260506173042 54 292 3.0 6.0 0.00 0.37 0.03 76 1008.9
20260506173036 54 292 3.0 6.0 0.00 0.37 0.03 76 1008.8
20260506172044 54 276 4.0 9.0 0.00 0.39 0.03 76 1008.8
20260506172037 54 276 4.0 9.0 0.00 0.39 0.03 76 1008.7
20260506171011 54 295 3.0 7.0 0.00 0.39 0.03 76 1008.7
20260506170012 54 284 4.0 7.0 0.00 0.39 0.03 76 1008.7
20260506170010 54 284 4.0 7.0 0.00 0.39 0.03 78 1008.7
20260506165040 54 284 4.0 7.0 0.00 0.39 0.03 78 1008.7
20260506165033 54 284 4.0 7.0 0.00 0.39 0.03 79 1008.6
20260506164024 54 272 4.0 8.0 0.00 0.39 0.03 79 1008.5
20260506163012 54 288 2.0 6.0 0.00 0.39 0.03 79 1008.6
20260506162047 54 288 2.0 6.0 0.00 0.39 0.03 79 1008.6
20260506162040 54 288 2.0 6.0 0.00 0.39 0.03 79 1008.6
20260506161045 54 277 3.0 6.0 0.00 0.39 0.03 79 1008.6
20260506161039 54 277 3.0 6.0 0.00 0.39 0.03 79 1008.6
20260506160042 54 276 3.0 6.0 0.00 0.39 0.03 79 1008.5
20260506155033 54 277 3.0 5.0 0.00 0.39 0.03 79 1008.6
20260506154013 54 290 3.0 7.0 0.00 0.39 0.03 79 1008.6
20260506154011 54 290 3.0 7.0 0.00 0.39 0.03 80 1008.6
20260506153007 54 288 4.0 8.0 0.00 0.39 0.03 80 1008.5
20260506152009 54 285 3.0 5.0 0.00 0.39 0.03 80 1008.5
20260506151039 54 285 3.0 5.0 0.00 0.39 0.03 79 1008.4
20260506151033 54 285 3.0 5.0 0.00 0.39 0.03 80 1008.3
20260506150012 54 280 4.0 9.0 0.00 0.39 0.03 80 1008.3
20260506145045 54 280 4.0 9.0 0.00 0.39 0.03 81 1008.2
20260506145038 54 280 4.0 9.0 0.00 0.39 0.03 81 1008.1
20260506144015 54 283 4.0 8.0 0.00 0.39 0.03 81 1008.1
20260506143022 55 283 4.0 8.0 0.00 0.39 0.03 80 1007.9
20260506141004 55 262 4.0 7.0 0.00 0.39 0.03 81 1007.9
20260506140023 55 262 4.0 7.0 0.00 0.41 0.03 81 1007.9
20260506140016 54 262 4.0 7.0 0.00 0.41 0.03 82 1008.0
20260506135037 54 265 4.0 7.0 0.00 0.41 0.03 82 1008.0
20260506135030 54 265 4.0 7.0 0.00 0.41 0.03 84 1008.0
20260506134042 54 271 4.0 8.0 0.00 0.42 0.03 84 1008.0
20260506134035 54 271 4.0 8.0 0.00 0.42 0.03 83 1008.1
20260506133032 54 276 4.0 8.0 0.00 0.42 0.03 84 1008.0
20260506131043 54 273 5.0 9.0 0.00 0.43 0.03 84 1008.0
20260506131037 54 273 5.0 9.0 0.00 0.43 0.03 83 1007.9
20260506130012 54 279 4.0 7.0 0.00 0.43 0.03 83 1007.9
20260506125024 55 279 4.0 7.0 0.00 0.44 0.03 84 1007.8
20260506124015 55 262 4.0 7.0 0.00 0.44 0.03 84 1007.8
20260506123042 55 262 4.0 7.0 0.00 0.44 0.03 84 1007.7
20260506123036 55 262 4.0 7.0 0.00 0.44 0.03 84 1007.6
20260506122014 55 269 5.0 9.0 0.00 0.44 0.03 85 1007.5
20260506121005 55 277 4.0 8.0 0.00 0.46 0.03 85 1007.5
20260506120042 55 277 4.0 8.0 0.00 0.46 0.03 86 1007.4
20260506120036 55 277 4.0 8.0 0.00 0.46 0.03 86 1007.3
20260506115005 55 276 3.0 6.0 0.00 0.46 0.03 86 1007.3
20260506114013 55 269 4.0 9.0 0.00 0.46 0.03 84 1007.2
20260506113009 55 265 4.0 8.0 0.00 0.47 0.03 85 1007.1
20260506111014 56 258 5.0 9.0 0.00 0.47 0.03 86 1007.1
20260506110012 56 275 4.0 9.0 0.00 0.47 0.03 86 1007.1
20260506105036 56 275 4.0 9.0 0.00 0.49 0.03 85 1007.0
20260506105029 56 275 4.0 9.0 0.00 0.49 0.03 87 1006.9
20260506104031 55 269 4.0 8.0 0.00 0.49 0.03 87 1006.9
20260506103036 56 274 4.0 7.0 0.00 0.49 0.03 88 1006.8
20260506102008 56 271 3.0 6.0 0.01 0.49 0.03 90 1006.6
20260506101004 56 272 4.0 8.0 0.01 0.49 0.03 90 1006.6
20260506100005 55 265 5.0 9.0 0.01 0.49 0.03 90 1006.6
20260506095038 55 265 5.0 9.0 0.01 0.49 0.03 90 1006.6
20260506095031 55 265 5.0 9.0 0.01 0.49 0.03 94 1006.5
20260506094017 55 264 4.0 7.0 0.01 0.49 0.03 94 1006.5
20260506094015 55 264 4.0 7.0 0.01 0.49 0.03 95 1006.5
20260506093043 55 264 4.0 7.0 0.01 0.49 0.03 95 1006.5
20260506093038 55 264 4.0 7.0 0.01 0.49 0.03 95 1006.4
20260506092040 55 272 4.0 8.0 0.01 0.49 0.03 95 1006.4
20260506092034 55 272 4.0 8.0 0.00 0.48 0.02 96 1006.3
20260506091042 55 269 3.0 6.0 0.00 0.48 0.02 96 1006.3
20260506091036 55 269 3.0 6.0 0.00 0.48 0.02 95 1006.3
20260506090040 55 291 3.0 7.0 0.00 0.48 0.02 95 1006.3
20260506090033 55 291 3.0 7.0 0.00 0.48 0.02 93 1006.2
20260506085044 55 287 2.0 6.0 0.00 0.48 0.02 93 1006.2
20260506085039 55 287 2.0 6.0 0.00 0.48 0.02 92 1006.1